This demonstration page uses our WeatherBlox Daily Observations layout. Learn more.

Left ArrowRight Arrow

Hourly Observations for May 30, 2015

Temp ( °F °C ) Dew Point ( °F °C ) Humidity (%) Winds ( mph kmh ) Pressure ( in mb ) Visibility ( mi km ) Precip ( " mm )
12:16 am 00:16 Clear 72 22 59 15 65 65 S 6 9 30.03 1017 10 16.0934 N/A
12:36 am 00:36 Clear 72 22 59 15 65 65 SSW 5 7 30.03 1017 10 16.0934 N/A
12:56 am 00:56 Clear 70 21 59 15 69 69 S 5 7 30 1016 10 16.0934 N/A
1:16 am 01:16 Clear 70 21 61 16 73 73 S 6 9 30 1016 10 16.0934 N/A
1:36 am 01:36 Clear 70 21 61 16 73 73 S 6 9 30 1016 10 16.0934 N/A
1:56 am 01:56 Clear 70 21 63 17 78 78 S 7 11 30 1016 10 16.0934 N/A
2:16 am 02:16 Clear 70 21 63 17 78 78 S 7 11 30 1016 10 16.0934 N/A
2:36 am 02:36 Clear 70 21 64 18 83 83 S 6 9 30 1016 10 16.0934 N/A
2:56 am 02:56 Clear 70 21 66 19 88 88 SSW 7 11 30 1016 10 16.0934 N/A
3:16 am 03:16 Clear 70 21 70 21 100 100 S 6 9 30 1016 10 16.0934 N/A
3:36 am 03:36 Partly Cloudy 70 21 68 20 94 94 SSW 7 11 30 1016 10 16.0934 N/A
3:56 am 03:56 Mostly Cloudy 70 21 70 21 100 100 SSW 6 9 30 1016 10 16.0934 N/A
4:16 am 04:16 Partly Cloudy 68 20 N/A N/A S 5 7 30.03 1017 10 16.0934 N/A
4:36 am 04:36 Clear 68 20 N/A N/A SSW 6 9 30.03 1017 10 16.0934 N/A
4:56 am 04:56 Clear 68 20 N/A N/A S 6 9 30.03 1017 10 16.0934 N/A
5:16 am 05:16 Clear 68 20 N/A N/A SSW 5 7 30.03 1017 10 16.0934 N/A
5:36 am 05:36 Clear 66 19 N/A N/A S 6 9 30.03 1017 10 16.0934 N/A
5:56 am 05:56 Clear 66 19 N/A N/A S 6 9 30.03 1017 10 16.0934 N/A
6:16 am 06:16 Clear 66 19 N/A N/A S 6 9 30.03 1017 7 11.26538 N/A
6:36 am 06:36 Sunny 66 19 N/A N/A S 6 9 30.03 1017 7 11.26538 N/A
6:56 am 06:56 Partly Cloudy 66 19 N/A N/A S 5 7 30.03 1017 7 11.26538 N/A
7:16 am 07:16 Partly Cloudy 68 20 N/A N/A S 6 9 30.03 1017 7 11.26538 N/A
7:36 am 07:36 Sunny 68 20 N/A N/A S 6 9 30.03 1017 7 11.26538 N/A
7:56 am 07:56 Partly Cloudy 70 21 N/A N/A S 5 7 30 1016 7 11.26538 N/A
8:16 am 08:16 Sunny 72 22 N/A N/A S 8 13 30 1016 10 16.0934 N/A
8:36 am 08:36 Sunny 73 23 66 19 78 78 S 9 15 30 1016 10 16.0934 N/A
8:56 am 08:56 Partly Cloudy 73 23 66 19 78 78 S 7 11 30 1016 10 16.0934 N/A
9:16 am 09:16 Partly Cloudy 75 24 64 18 69 69 SSW 8 13 30 1016 10 16.0934 N/A
9:36 am 09:36 Partly Cloudy 75 24 64 18 69 69 SW 8 13 30.03 1017 10 16.0934 N/A
9:57 am 09:57 Partly Cloudy 77 25 63 17 61 61 SSW 9 15 30 1016 10 16.0934 N/A
10:16 am 10:16 Partly Cloudy 79 26 61 16 54 54 SSW 8 13 30 1016 10 16.0934 N/A
10:36 am 10:36 Partly Cloudy 79 26 61 16 54 54 SSW 9 15 30 1016 10 16.0934 N/A
10:56 am 10:56 Partly Cloudy 81 27 59 15 48 48 SSW 9 15 30 1016 10 16.0934 N/A
11:16 am 11:16 Partly Cloudy 81 27 57 14 45 45 SSW 12 19 30 1016 10 16.0934 N/A
11:36 am 11:36 Partly Cloudy 81 27 57 14 45 45 SSW 13 20 30 1016 10 16.0934 N/A
11:56 am 11:56 Partly Cloudy 82 28 55 13 40 40 SSW 14 22 30 1016 10 16.0934 N/A
12:16 pm 12:16 Partly Cloudy 82 28 55 13 40 40 S 13 20 29.97 1015 10 16.0934 N/A
12:36 pm 12:36 Sunny 84 29 55 13 37 37 SSW 10 17 29.97 1015 10 16.0934 N/A
12:56 pm 12:56 Sunny 86 30 54 12 33 33 S 12 19 29.97 1015 10 16.0934 N/A
1:16 pm 13:16 Sunny 86 30 50 10 29 29 S 17 28 29.97 1015 10 16.0934 N/A
1:36 pm 13:36 Partly Cloudy 86 30 50 10 29 29 SSW 16 26 29.97 1015 10 16.0934 N/A
1:56 pm 13:56 Partly Cloudy 82 28 54 12 37 37 SSW 20 31 29.94 1014 10 16.0934 N/A
2:16 pm 14:16 Cloudy 72 22 68 20 88 88 WSW 14 22 29.97 1015 4 6.43736 N/A
2:36 pm 14:36 Mostly Cloudy 72 22 N/A N/A WSW 9 15 29.94 1014 10 16.0934 N/A
2:56 pm 14:56 Partly Cloudy 75 24 N/A N/A WSW 10 17 29.94 1014 10 16.0934 N/A
3:16 pm 15:16 Sunny 79 26 68 20 70 70 WSW 7 11 29.94 1014 10 16.0934 N/A
3:36 pm 15:36 Sunny 81 27 63 17 54 54 SW 7 11 29.91 1013 10 16.0934 N/A
3:56 pm 15:56 Sunny 84 29 59 15 43 43 SSW 7 11 29.91 1013 10 16.0934 N/A
4:16 pm 16:16 Partly Cloudy 81 27 61 16 51 51 S 6 9 29.91 1013 5 8.0467 N/A
4:37 pm 16:37 Mostly Cloudy 81 27 61 16 51 51 S 6 9 29.88 1012 10 16.0934 N/A
4:56 pm 16:56 Partly Cloudy 82 28 57 14 42 42 S 14 22 29.88 1012 10 16.0934 N/A
5:16 pm 17:16 Partly Cloudy 79 26 61 16 54 54 SW 12 19 29.88 1012 7 11.26538 N/A
5:36 pm 17:36 Mostly Cloudy 73 23 63 17 69 69 SSW 21 33 29.94 1014 10 16.0934 N/A
5:56 pm 17:56 Cloudy 68 20 N/A N/A SSE 10 17 29.94 1014 0.5 0.80467 N/A
6:16 pm 18:16 Mostly Cloudy 70 21 N/A N/A Calm 29.94 1014 10 16.0934 N/A
6:36 pm 18:36 Partly Cloudy 72 22 N/A N/A NNW 8 13 29.91 1013 10 16.0934 N/A
6:56 pm 18:56 Sunny 73 23 64 18 74 74 NNW 9 15 29.91 1013 10 16.0934 N/A
7:17 pm 19:17 Sunny 70 21 70 21 100 100 N 9 15 29.91 1013 10 16.0934 N/A
7:36 pm 19:36 Sunny 70 21 N/A N/A NNE 5 7 29.91 1013 10 16.0934 N/A
7:56 pm 19:56 Sunny 70 21 N/A N/A ENE 7 11 29.91 1013 10 16.0934 N/A
8:16 pm 20:16 Partly Cloudy 70 21 N/A N/A E 8 13 29.91 1013 5 8.0467 N/A
8:36 pm 20:36 Mostly Cloudy 70 21 N/A N/A ESE 8 13 29.94 1014 10 16.0934 N/A
8:56 pm 20:56 Mostly Cloudy 70 21 N/A N/A NNE 6 9 29.91 1013 10 16.0934 N/A
9:16 pm 21:16 Cloudy 66 19 N/A N/A WNW 15 24 29.97 1015 0.75 1.207005 N/A
9:36 pm 21:36 Cloudy 66 19 N/A N/A WSW 6 9 29.97 1015 5 8.0467 N/A
9:56 pm 21:56 Mostly Cloudy 66 19 N/A N/A W 3 6 29.97 1015 10 16.0934 N/A
10:16 pm 22:16 Partly Cloudy 68 20 N/A N/A Calm 29.97 1015 10 16.0934 N/A
10:37 pm 22:37 Partly Cloudy 66 19 N/A N/A SSE 6 9 29.97 1015 10 16.0934 N/A
10:56 pm 22:56 Mostly Cloudy 66 19 N/A N/A SE 7 11 29.97 1015 7 11.26538 N/A
11:16 pm 23:16 Cloudy 66 19 N/A N/A SE 9 15 29.97 1015 7 11.26538 N/A
11:36 pm 23:36 Cloudy 66 19 N/A N/A SE 7 11 29.97 1015 10 16.0934 N/A
11:56 pm 23:56 Partly Cloudy 66 19 N/A N/A SE 6 9 29.97 1015 10 16.0934 N/A

Powered by AerisWeather